Location: Leo
(52.0556°N, 112.3605°W)
Time: 19:21:11
(UTC+00:00)

BlueWalker 3 - Visible Passes

Search period start: 29 May 2023 00:00
Search period end: 08 June 2023 00:00
Orbit: 495 x 512 km, 53.2° (Epoch: 29 May)

Date Brightness Start Highest point End Pass type
(mag) Time Alt. Az. Time Alt. Az. Time Alt. Az.
29 May 1.9 05:40:55 10° SW 05:44:43 60° SSE 05:48:33 10° ENE visible
29 May 2.1 07:19:23 10° W 07:23:16 74° N 07:27:10 10° E visible
29 May 1.8 08:58:01 10° WNW 09:01:55 83° SSW 09:05:50 10° ESE visible
30 May 1.9 05:20:35 10° SW 05:24:23 61° SSE 05:28:13 10° ENE visible
30 May 2.1 06:59:03 10° W 07:02:56 74° N 07:06:50 10° E visible
30 May 1.8 08:37:41 10° WNW 08:41:35 83° SSW 08:45:30 10° ESE visible
30 May 2.8 10:16:27 10° W 10:19:48 28° SW 10:23:09 10° SSE visible
31 May 1.9 05:00:14 10° WSW 05:04:02 62° SSE 05:07:52 10° ENE visible
31 May 2.1 06:38:43 10° W 06:42:35 74° N 06:46:30 10° E visible
31 May 1.8 08:17:21 10° WNW 08:21:14 82° SSW 08:25:09 10° ESE visible
31 May 2.9 09:56:07 10° W 09:59:27 27° SW 10:02:46 10° SSE visible
01 Jun 1.9 04:39:52 10° WSW 04:43:40 63° SSE 04:47:31 10° ENE visible
01 Jun 2.1 06:18:22 10° W 06:22:14 74° N 06:26:09 10° E visible
01 Jun 1.8 07:57:00 10° WNW 08:00:53 81° SSW 08:04:47 10° ESE visible
01 Jun 2.9 09:35:47 10° W 09:39:05 26° SW 09:42:23 10° SSE visible
02 Jun 2.1 05:58:01 10° W 06:01:54 73° N 06:05:47 10° E visible
02 Jun 1.8 07:36:39 10° WNW 07:40:31 80° SSW 07:44:25 10° ESE visible
02 Jun 2.9 09:15:27 10° W 09:18:43 26° SW 09:21:59 10° SSE visible
03 Jun 2.2 05:37:39 10° W 05:41:31 73° N 05:45:25 10° E visible
03 Jun 1.8 07:16:16 10° WNW 07:20:09 79° SSW 07:24:04 10° ESE visible
03 Jun 3.0 08:55:06 10° W 08:58:20 25° SW 08:59:40 21° S visible
04 Jun 2.2 05:17:18 10° W 05:21:09 73° N 05:25:02 10° E visible
04 Jun 1.8 06:55:54 10° WNW 06:59:47 78° SSW 07:03:41 10° ESE visible
04 Jun 3.0 08:34:44 10° W 08:37:57 25° SW 08:38:17 25° SSW visible
05 Jun 2.2 04:56:55 10° W 05:00:47 73° N 05:04:40 10° E visible
05 Jun 1.8 06:35:32 10° WNW 06:39:24 77° SSW 06:42:54 13° ESE visible
05 Jun 3.1 08:14:22 10° W 08:17:31 24° SW 08:17:31 24° SW visible
06 Jun 2.2 04:36:32 10° W 04:40:24 73° N 04:44:16 10° E visible
06 Jun 1.8 06:15:09 10° WNW 06:19:01 76° SSW 06:22:24 13° ESE visible
06 Jun 3.1 07:54:00 10° W 07:57:02 24° SW 07:57:02 24° SW visible
07 Jun 1.8 05:54:45 10° WNW 05:58:37 75° SSW 06:02:04 13° ESE visible
07 Jun 3.2 07:33:37 10° W 07:36:43 23° SW 07:36:43 23° SW visible
